Back to catalog

COSMOS 1275 DEB

AlivePO
NORAD 42199·DEBRIS·🇷🇺 Russia

Launched Jun 4, 1981 from Plesetsk Cosmodrome

Loading…

Next Passes (next 24 hours)

TLE

FreshSource: Space-Track

Epoch: Sep 14, 2026, 13:54 UTC

1 42199U 81053TP  26257.57947157  .00000505  00000-0  37357-3 0  9997
2 42199  82.9521 349.3431 0037782 269.9267  89.7570 13.93246075650028

Track COSMOS 1275 DEB in real time with AllMySat

Download on the App Store